Waarnemingen

Advertentie
Mijn weer
Deelen, Nederland (6275): temperatuur & dauwpunt: 17.07.2018 07:00:00 - 23.07.2018 07:00:00 (CEST)Deelen, Nederland (6275): temperatuur 5cm: 17.07.2018 07:00:00 - 23.07.2018 07:00:00 (CEST)Deelen, Nederland (6275): windsnelheid & windstoten: 17.07.2018 07:00:00 - 23.07.2018 07:00:00 (CEST)Deelen, Nederland (6275): windrichting: 17.07.2018 07:00:00 - 23.07.2018 07:00:00 (CEST)Deelen, Nederland (6275): luchtdruk: 17.07.2018 07:00:00 - 23.07.2018 07:00:00 (CEST)Deelen, Nederland (6275): zicht: 17.07.2018 07:00:00 - 23.07.2018 07:00:00 (CEST)Deelen, Nederland (6275): neerslag: 17.07.2018 07:00:00 - 23.07.2018 07:00:00 (CEST)
Datum & Tijd tt [°C] td [°C] tt 5cm [°C] ff [km/u] ff [kn] fx [km/u] fx [kn] dd ppp [hPa] vv [km] rr [mm]
23.07.2018 07:00:00 12,9 11,4 11,3 4 2 7 4 O 1017,1 10 0,0
23.07.2018 06:00:00 11,8 10,7 10,1 2 1 7 4 OZO 1017,0 10 0,0
23.07.2018 05:00:00 11,4 10,6 10,2 4 2 4 2 ZW 1016,7 10 0,0
23.07.2018 04:00:00 11,8 10,3 10,4 2 1 4 2 ZZO 1016,6 10 0,0
23.07.2018 03:00:00 12,8 11,6 10,4 2 1 4 2 ZZO 1016,8 10 0,0
23.07.2018 02:00:00 13,2 11,8 10,9 2 1 4 2 ZZO 1016,8 10 0,0
23.07.2018 01:00:00 14,2 12,1 12,0 0 0 0 0 N 1016,8 10 0,0
23.07.2018 00:00:00 15,9 12,5 13,5 2 1 4 2 NNW 1016,7 10 0,0
22.07.2018 23:00:00 17,5 13,6 15,5 4 2 11 6 N 1016,3 10 0,0
22.07.2018 22:00:00 20,9 13,5 20,0 9 5 22 12 NW 1015,9 10 0,0
22.07.2018 21:00:00 23,2 13,9 23,1 11 6 25 14 NW 1015,3 10 0,0
22.07.2018 20:00:00 24,9 11,8 25,8 18 10 29 16 NW 1014,9 10 0,0
22.07.2018 19:00:00 26,5 7,5 28,5 18 10 36 19 WNW 1014,6 10 0,0
22.07.2018 18:00:00 27,3 10,4 29,7 18 10 36 19 WNW 1014,4 10 0,0
22.07.2018 17:00:00 28,4 11,7 30,9 16 9 36 19 WZW 1014,3 10 0,0
22.07.2018 16:00:00 27,2 12,5 30,2 16 9 40 21 WZW 1014,4 10 0,0
22.07.2018 15:00:00 27,3 12,7 31,3 16 9 32 18 - 1014,4 10 0,0
22.07.2018 14:00:00 24,9 13,6 27,0 13 7 22 12 NW 1014,7 10 0,0
22.07.2018 13:00:00 25,3 13,5 28,6 13 7 25 14 WNW 1014,9 10 0,0
22.07.2018 12:00:00 24,4 13,8 27,4 13 7 22 12 NW 1015,2 10 0,0
22.07.2018 11:00:00 23,4 14,1 27,0 9 5 18 10 WNW 1014,9 10 0,0
22.07.2018 10:00:00 21,9 15,0 24,5 8 4 14 8 - 1014,9 10 0,0
22.07.2018 09:00:00 20,0 15,9 21,0 11 6 14 8 WNW 1014,8 10 0,0
22.07.2018 08:00:00 16,8 15,1 16,8 2 1 7 4 - 1014,4 9 0,0
22.07.2018 07:00:00 14,7 13,8 13,6 0 0 11 6 N 1014,1 9 0,0
22.07.2018 06:00:00 14,5 13,6 13,4 5 3 11 6 NW 1014,0 10 0,0
22.07.2018 05:00:00 14,9 13,9 14,1 9 5 14 8 WNW 1013,6 10 0,0
22.07.2018 04:00:00 15,1 14,1 13,8 5 3 11 6 WNW 1013,4 9 0,0
22.07.2018 03:00:00 16,1 14,4 14,4 9 5 11 6 WNW 1013,3 10 0,0
22.07.2018 02:00:00 16,3 14,5 14,8 8 4 14 8 WNW 1013,2 10 0,0
22.07.2018 01:00:00 17,8 14,8 17,1 9 5 22 12 NW 1013,1 10 0,0
22.07.2018 00:00:00 18,8 15,3 18,3 15 8 22 12 NW 1012,7 10 0,0
21.07.2018 23:00:00 20,0 14,4 19,2 9 5 22 12 WNW 1012,9 10 0,0
21.07.2018 22:00:00 21,5 13,8 20,8 11 6 29 16 WNW 1012,5 10 0,0
21.07.2018 21:00:00 23,3 14,5 23,5 15 8 25 14 WNW 1011,9 10 0,0
21.07.2018 20:00:00 25,3 13,9 26,2 16 9 29 16 NW 1011,3 10 0,0
21.07.2018 19:00:00 26,6 13,3 28,7 16 9 29 16 NW 1011,2 10 0,0
21.07.2018 18:00:00 27,1 13,3 28,9 18 10 32 18 NW 1011,1 10 0,0
21.07.2018 17:00:00 27,2 13,0 29,3 15 8 29 16 NW 1011,0 10 0,0
21.07.2018 16:00:00 28,2 13,8 31,6 18 10 32 18 WNW 1010,8 10 0,0
21.07.2018 15:00:00 28,1 11,4 30,0 13 7 25 14 - 1010,7 10 0,0
21.07.2018 14:00:00 28,1 12,2 32,4 11 6 29 16 - 1010,8 10 0,0
21.07.2018 13:00:00 26,6 11,8 31,0 8 4 25 14 - 1011,0 10 0,0
21.07.2018 12:00:00 25,6 12,4 29,2 8 4 25 14 - 1010,8 10 0,0
21.07.2018 11:00:00 24,0 13,0 27,2 5 3 14 8 - 1010,9 10 0,0
21.07.2018 10:00:00 21,7 13,1 24,1 5 3 11 6 WZW 1011,4 10 0,0
21.07.2018 09:00:00 19,4 12,9 20,8 4 2 7 4 - 1011,4 10 0,0
21.07.2018 08:00:00 16,8 13,3 17,3 4 2 7 4 - 1011,0 10 0,0
21.07.2018 07:00:00 14,4 12,3 13,6 0 0 7 4 N 1010,5 10 0,0
21.07.2018 06:00:00 13,9 12,1 12,5 4 2 7 4 NNW 1010,4 10 0,0
21.07.2018 05:00:00 15,1 12,1 14,2 4 2 11 6 W 1010,5 10 0,0
21.07.2018 04:00:00 16,5 12,6 15,6 5 3 7 4 N 1010,8 10 0,0
21.07.2018 03:00:00 17,1 12,8 16,6 4 2 7 4 NNW 1011,2 10 0,0
21.07.2018 02:00:00 17,7 13,2 17,2 4 2 7 4 NNW 1011,1 10 0,0
21.07.2018 01:00:00 18,4 14,0 17,6 4 2 7 4 NW 1011,3 10 0,0
21.07.2018 00:00:00 19,3 14,6 18,5 5 3 14 8 NW 1011,6 10 0,0
20.07.2018 23:00:00 19,7 15,0 18,7 8 4 18 10 W 1011,9 10 0,0
20.07.2018 22:00:00 21,0 14,4 20,0 8 4 18 10 W 1011,9 10 0,0
20.07.2018 21:00:00 23,1 11,9 23,0 15 8 25 14 WNW 1011,6 10 0,0
20.07.2018 20:00:00 24,0 12,8 24,4 15 8 22 12 WNW 1011,7 10 0,0
20.07.2018 19:00:00 24,9 11,2 25,6 11 6 25 14 WNW 1011,7 10 0,0
20.07.2018 18:00:00 26,3 9,6 28,8 15 8 22 12 WNW 1011,8 10 0,0
20.07.2018 17:00:00 26,5 9,3 29,8 13 7 25 14 - 1012,4 10 0,0
20.07.2018 16:00:00 26,3 8,9 30,7 8 4 25 14 - 1012,6 10 0,0
20.07.2018 15:00:00 25,6 8,3 30,3 9 5 22 12 - 1013,1 10 0,0
20.07.2018 14:00:00 24,5 8,7 27,5 9 5 22 12 - 1013,5 10 0,0
20.07.2018 13:00:00 25,9 9,8 28,6 8 4 29 16 - 1013,8 10 0,0
20.07.2018 12:00:00 24,0 8,8 27,2 5 3 18 10 - 1014,2 10 0,0
20.07.2018 11:00:00 22,2 10,8 25,7 5 3 14 8 N 1014,3 10 0,0
20.07.2018 10:00:00 20,3 11,8 22,5 8 4 14 8 WNW 1014,6 10 0,0
20.07.2018 09:00:00 18,3 12,4 19,1 2 1 7 4 - 1014,7 10 0,0
20.07.2018 08:00:00 13,1 11,2 12,4 0 0 4 2 N 1014,8 10 0,0
20.07.2018 07:00:00 9,3 8,6 8,2 2 1 4 2 NNW 1015,4 10 0,0
20.07.2018 06:00:00 8,8 8,3 6,9 0 0 4 2 N 1015,5 10 0,0
20.07.2018 05:00:00 9,7 9,3 7,3 2 1 7 4 NNW 1015,6 3,0 0,0
20.07.2018 04:00:00 11,1 10,2 8,3 2 1 4 2 WNW 1015,8 10 0,0
20.07.2018 03:00:00 11,9 10,8 10,1 0 0 4 2 N 1015,9 10 0,0
20.07.2018 02:00:00 12,9 11,1 10,9 2 1 7 4 - 1016,4 10 0,0
20.07.2018 01:00:00 14,8 11,9 12,4 4 2 4 2 NNW 1016,8 10 0,0
20.07.2018 00:00:00 16,6 12,3 14,7 2 1 4 2 NNO 1016,9 10 0,0
19.07.2018 23:00:00 17,0 12,6 14,5 4 2 11 6 NNW 1017,1 10 0,0
19.07.2018 22:00:00 19,9 12,1 19,2 9 5 18 10 NNW 1017,1 10 0,0
19.07.2018 21:00:00 22,5 9,3 22,2 15 8 25 14 NNW 1016,8 10 0,0
19.07.2018 20:00:00 24,4 8,4 25,1 18 10 29 16 NNW 1016,8 10 0,0
19.07.2018 19:00:00 25,1 10,8 26,3 11 6 25 14 WNW 1016,7 10 0,0
19.07.2018 18:00:00 25,3 11,3 26,6 15 8 25 14 NNW 1017,0 10 0,0
19.07.2018 17:00:00 25,8 10,4 27,1 15 8 22 12 NNW 1017,3 10 0,0
19.07.2018 16:00:00 25,4 10,5 27,0 9 5 18 10 NNW 1017,5 10 0,0
19.07.2018 15:00:00 27,4 9,7 27,5 11 6 25 14 ZZW 1017,5 10 0,0
19.07.2018 14:00:00 25,5 9,6 27,4 9 5 18 10 - 1017,7 10 0,0
19.07.2018 13:00:00 25,5 10,1 29,1 5 3 18 10 - 1018,0 10 0,0
19.07.2018 12:00:00 25,0 10,7 28,4 4 2 14 8 - 1018,3 10 0,0
19.07.2018 11:00:00 23,7 10,9 26,4 5 3 14 8 - 1018,6 10 0,0
19.07.2018 10:00:00 21,6 10,5 24,3 4 2 7 4 Z 1018,9 10 0,0
19.07.2018 09:00:00 19,6 9,6 20,6 4 2 7 4 - 1018,8 10 0,0
19.07.2018 08:00:00 18,3 9,8 18,5 2 1 7 4 - 1018,6 10 0,0
19.07.2018 07:00:00 17,0 9,4 16,3 5 3 11 6 OZO 1018,5 10 0,0
19.07.2018 06:00:00 17,2 9,6 16,4 8 4 11 6 - 1018,5 10 0,0
19.07.2018 05:00:00 17,6 10,0 16,6 8 4 11 6 - 1018,6 10 0,0
19.07.2018 04:00:00 18,1 10,4 17,3 9 5 14 8 O 1018,6 10 0,0
19.07.2018 03:00:00 18,0 11,3 16,0 5 3 7 4 O 1018,8 10 0,0
19.07.2018 02:00:00 17,9 13,0 17,1 4 2 7 4 NW 1018,9 10 0,0
19.07.2018 01:00:00 18,0 13,2 17,0 5 3 11 6 NW 1018,7 10 0,0
19.07.2018 00:00:00 19,2 13,2 18,5 5 3 14 8 N 1018,8 10 0,0
18.07.2018 23:00:00 19,7 12,7 18,8 13 7 25 14 N 1018,7 10 0,0
18.07.2018 22:00:00 21,0 12,5 20,5 15 8 25 14 NNW 1018,4 10 0,0
18.07.2018 21:00:00 23,5 10,3 23,3 13 7 22 12 WNW 1018,0 10 0,0
18.07.2018 20:00:00 24,5 9,0 23,4 5 3 7 4 WNW 1017,8 10 0,0
18.07.2018 19:00:00 24,6 8,6 25,0 8 4 11 6 NW 1017,7 10 0,0
18.07.2018 18:00:00 25,0 8,8 25,7 4 2 11 6 - 1018,0 10 0,0
18.07.2018 17:00:00 24,7 9,8 25,8 4 2 22 12 - 1018,2 10 0,0
18.07.2018 16:00:00 25,4 8,8 28,6 9 5 18 10 - 1018,4 10 0,0
18.07.2018 15:00:00 24,0 8,7 27,5 8 4 18 10 ZO 1018,6 10 0,0
18.07.2018 14:00:00 24,0 8,8 26,0 8 4 25 14 - 1018,7 10 0,0
18.07.2018 13:00:00 23,4 9,1 27,8 11 6 25 14 ZZW 1018,9 10 0,0
18.07.2018 12:00:00 23,1 9,4 27,1 13 7 32 18 ZW 1018,8 10 0,0
18.07.2018 11:00:00 22,3 9,3 26,2 13 7 22 12 - 1018,9 10 0,0
18.07.2018 10:00:00 21,1 9,5 23,8 11 6 18 10 WZW 1019,0 10 0,0
18.07.2018 09:00:00 19,3 10,9 20,3 9 5 14 8 ZW 1019,0 10 0,0
18.07.2018 08:00:00 16,4 12,5 16,1 2 1 7 4 - 1018,8 10 0,0
18.07.2018 07:00:00 12,7 11,5 10,1 5 3 7 4 O 1018,7 10 0,0
18.07.2018 06:00:00 9,7 8,7 7,7 4 2 4 2 OZO 1018,3 10 0,0
18.07.2018 05:00:00 9,4 8,0 8,0 2 1 7 4 ZZO 1018,1 10 0,0
18.07.2018 04:00:00 10,2 9,1 9,0 4 2 7 4 - 1017,9 10 0,0
18.07.2018 03:00:00 11,0 9,7 9,2 2 1 4 2 W 1018,1 10 0,0
18.07.2018 02:00:00 12,6 10,9 10,0 2 1 4 2 W 1018,1 10 0,0
18.07.2018 01:00:00 13,3 11,4 10,7 4 2 7 4 W 1018,1 10 0,0
18.07.2018 00:00:00 15,6 11,6 14,3 5 3 14 8 W 1018,0 10 0,0
17.07.2018 23:00:00 16,6 11,1 15,3 8 4 14 8 W 1017,7 10 0,0
17.07.2018 22:00:00 18,3 10,6 17,2 8 4 18 10 WNW 1017,3 10 0,0
17.07.2018 21:00:00 20,3 10,4 20,3 16 9 29 16 WNW 1017,0 10 0,0
17.07.2018 20:00:00 22,6 9,8 23,6 21 11 36 19 W 1015,9 10 0,0
17.07.2018 19:00:00 24,0 10,9 25,5 18 10 43 23 W 1015,5 10 0,0
17.07.2018 18:00:00 25,2 12,6 27,4 18 10 40 21 W 1015,1 10 0,0
17.07.2018 17:00:00 27,1 12,5 28,7 16 9 40 21 W 1014,6 10 0,0
17.07.2018 16:00:00 26,5 11,8 29,6 18 10 43 23 W 1014,6 10 0,0
17.07.2018 15:00:00 26,3 13,0 27,4 18 10 36 19 W 1014,7 10 0,0
17.07.2018 14:00:00 26,4 12,8 28,6 16 9 32 18 WZW 1014,5 10 0,0
17.07.2018 13:00:00 26,1 13,4 30,1 21 11 36 19 W 1014,5 10 0,0
17.07.2018 12:00:00 26,0 10,6 29,1 24 13 36 19 WZW 1014,2 10 0,0
17.07.2018 11:00:00 25,9 11,3 28,2 16 9 32 18 W 1014,0 10 0,0
17.07.2018 10:00:00 24,8 10,8 26,8 11 6 22 12 WZW 1013,6 10 0,0
17.07.2018 09:00:00 22,8 13,2 24,1 11 6 18 10 WZW 1013,5 10 0,0
17.07.2018 08:00:00 20,6 14,0 20,7 8 4 11 6 WZW 1013,2 10 0,0
17.07.2018 07:00:00 17,9 13,0 16,5 4 2 7 4 O 1012,9 10 0,0

tt = temperatuur
td = dauwpunt
tt 5cm = temperatuur 5cm
ff = windsnelheid
fx = windstoten
dd = windrichting
ppp = luchtdruk
vv = zicht
rr = neerslag

Weerstations in de omgeving